Wind_Speed
16 18 21 24 24 23 20 17 20 20 20 18 18 16 15 14 12 12 12 11 13 13 13 13 13 12 12 10 11 10 8 9 9 9 8 8 7 7 6 6 8 8 9
16 17 21 21 22 22 19 17 18 17 17 18 16 14 13 12 11 12 11 11 13 12 12 12 11 11 11 10 10 10 7 7 6 8 5 6 7 7 6 8 6 11 11
19 20 19 19 20 19 17 16 16 17 17 17 14 13 12 11 12 11 10 10 11 11 10 11 10 10 10 10 10 8 7 5 4 4 7 5 7 6 5 7 8 12 11
20 18 18 18 17 16 16 16 16 17 17 15 13 12 10 9 9 9 8 10 10 9 9 9 10 9 9 9 8 7 6 3 1 2 3 5 8 6 8 8 9 10 9
14 15 14 15 16 16 17 16 16 16 16 14 14 11 9 8 7 7 7 9 9 8 8 8 8 8 7 7 7 7 6 6 2 2 6 5 5 5 8 8 8 11 7
14 14 14 14 15 16 16 16 16 15 15 14 13 10 9 8 6 6 7 7 7 7 7 7 7 7 7 7 6 6 5 5 4 2 5 6 6 6 8 7 7 8 10
17 15 14 14 15 16 17 16 17 15 14 13 11 9 8 6 5 6 6 5 6 6 6 7 7 8 7 7 6 6 5 4 4 6 3 4 5 7 7 7 7 8 8
18 16 15 15 14 15 16 16 16 14 13 12 10 8 7 5 4 4 4 3 3 4 5 6 7 7 7 7 6 6 5 4 3 4 3 4 2 6 6 6 6 7 8
18 17 16 15 15 15 15 14 12 12 11 10 8 7 6 4 3 2 1 2 3 4 5 6 6 6 7 6 6 6 5 5 3 3 3 5 3 6 6 6 6 7 8
17 15 16 16 15 14 13 12 11 10 10 9 8 7 5 3 1 2 3 4 5 5 5 5 5 5 5 5 4 5 4 3 2 3 5 4 2 6 6 7 6 8 7
16 16 16 16 16 14 13 12 11 10 10 9 6 6 3 3 2 3 5 5 5 5 5 4 5 4 3 4 4 4 3 3 1 1 2 1 2 7 8 7 7 8 8
17 15 16 16 16 15 13 11 10 9 8 8 7 6 5 4 4 4 5 5 5 5 3 3 4 2 2 3 3 5 3 4 2 2 1 4 3 6 10 10 8 10 10
19 18 17 16 16 15 13 12 11 10 9 8 8 7 6 5 4 4 4 4 3 5 4 4 3 2 2 4 5 6 4 4 4 2 2 4 3 6 10 12 10 12 12
19 17 17 17 16 16 13 13 12 11 10 9 8 8 7 6 6 5 4 3 3 4 5 5 4 4 4 5 6 6 5 5 5 4 3 4 3 5 10 11 13 12 13
19 18 18 18 17 16 14 13 12 11 11 10 9 9 9 8 7 7 5 5 5 6 6 5 5 7 8 8 7 7 7 6 6 6 5 5 6 7 8 11 12 14 13
19 19 18 19 18 17 16 14 13 12 11 12 11 11 11 10 9 7 8 8 6 7 6 5 6 8 7 8 8 4 6 6 5 6 9 7 7 9 9 11 12 12 14
21 19 19 19 19 18 17 16 14 13 13 12 12 11 12 12 13 10 9 9 9 7 7 4 7 7 8 8 8 7 6 5 7 8 9 10 9 7 10 12 12 13 14
20 21 20 19 19 19 18 16 15 14 13 13 12 12 11 12 12 11 8 9 9 9 8 6 6 7 8 9 8 9 8 9 9 10 9 9 10 10 8 10 13 13 14
20 20 20 20 19 20 18 16 15 14 13 12 12 12 11 10 9 9 9 11 9 9 7 6 6 7 10 10 10 8 7 7 6 4 3 3 4 6 8 5 9 12 14
19 19 19 20 19 18 16 16 14 14 13 13 13 12 10 10 10 9 8 9 7 8 6 3 6 9 8 7 8 7 6 4 2 0 2 1 1 1 2 3 6 9 8
21 20 21 21 20 18 17 16 16 15 13 12 13 12 12 12 13 12 11 9 7 8 3 3 7 6 8 5 8 4 1 3 1 1 2 2 2 2 2 2 1 3 4
24 24 23 24 22 21 18 16 14 12 13 12 11 11 11 10 11 10 10 7 5 3 2 4 4 7 4 4 6 6 2 6 5 1 0 2 2 2 2 4 3 3 1
27 26 26 26 25 23 22 17 13 12 11 11 12 11 10 10 10 8 7 6 5 4 5 3 4 4 5 4 4 4 2 2 3 4 2 3 3 3 3 4 5 6 6
29 27 27 27 26 26 24 22 19 16 15 11 9 8 8 8 7 7 7 6 6 5 3 3 3 3 3 4 2 0 2 5 4 2 5 1 1 3 4 4 4 5 5
30 29 28 28 28 27 26 25 22 20 17 13 10 7 9 9 10 9 8 7 6 5 4 3 3 2 2 4 2 2 2 3 1 5 3 1 2 1 1 1 1 1 2
31 30 29 29 30 29 27 26 25 22 19 15 13 12 11 10 10 11 12 11 9 6 6 4 4 4 3 3 4 3 4 3 3 6 5 5 4 4 5 5 4 4 3
Wind_Direction
110 124 127 128 125 126 127 131 132 128 122 124 125 123 123 114 106 100 93 85 81 77 71 68 63 59 58 50 53 53 65 83 94 97 98 93 91 85 76 106 107 120 123
130 131 129 131 131 134 133 132 138 133 132 134 128 133 118 114 103 95 89 83 77 74 69 67 63 59 53 48 50 57 61 75 96 101 94 77 93 89 79 109 56 114 120
123 128 132 139 138 130 129 129 137 140 140 139 140 126 121 112 97 93 89 84 77 73 67 62 56 54 52 49 47 58 69 80 91 98 90 74 92 98 95 111 108 113 116
132 132 140 143 141 139 132 132 127 132 137 141 142 133 123 115 99 94 90 83 77 72 66 56 47 43 44 46 46 52 63 70 104 92 91 73 99 90 93 106 125 119 125
132 130 140 146 142 142 134 131 134 134 134 140 146 136 130 119 111 106 93 83 77 72 63 51 43 34 34 39 33 36 37 24 98 159 103 78 89 86 111 101 110 115 131
137 133 140 136 136 137 137 135 133 134 143 148 150 147 137 127 119 106 90 79 72 61 46 34 28 22 21 20 26 21 17 19 50 68 120 96 78 104 115 123 148 135 131
137 132 134 133 134 139 139 135 140 141 146 152 153 146 142 136 117 101 84 71 64 49 26 16 17 12 18 18 15 19 19 12 33 43 107 107 101 113 127 128 125 136 130
136 139 141 139 140 142 148 150 150 149 152 153 151 153 153 148 124 100 85 68 50 24 8 3 1 10 24 21 22 24 31 47 35 56 100 124 164 122 134 149 140 136 139
142 142 146 149 150 153 152 157 157 156 159 162 162 161 158 155 128 96 56 40 0 343 342 353 6 21 30 35 37 35 38 38 54 67 102 151 187 143 159 160 154 156 144
147 149 151 155 155 153 154 160 164 167 169 163 168 170 174 163 151 21 26 344 332 337 348 357 4 8 13 23 23 17 15 17 91 151 110 111 188 163 183 185 179 169 169
158 162 161 159 161 161 162 171 165 168 167 172 181 192 185 209 234 283 300 308 336 327 332 338 340 340 346 26 27 9 13 15 343 62 78 319 180 183 187 212 196 185 185
166 171 169 169 168 168 169 174 175 182 184 190 197 205 215 232 246 253 287 310 320 335 353 8 360 341 359 345 0 340 324 2 290 339 26 311 206 198 198 210 206 196 196
172 176 175 176 177 181 180 184 192 196 199 205 207 208 221 236 243 258 283 288 314 320 331 342 315 327 12 334 335 338 343 288 308 322 334 320 224 203 200 211 216 207 206
179 180 178 182 186 192 195 199 203 204 205 210 210 215 229 240 237 248 255 290 292 312 317 316 323 325 307 311 316 322 323 314 322 305 248 302 245 217 211 213 221 217 213
184 186 187 189 193 196 202 205 211 212 211 218 219 222 224 239 242 243 257 277 286 285 287 316 310 313 309 297 301 301 303 306 305 299 291 284 258 216 216 216 223 225 222
192 192 192 195 197 200 205 209 213 216 220 225 228 227 231 233 245 254 264 271 281 277 288 299 309 309 306 305 297 297 304 305 302 298 295 289 282 241 227 218 228 229 228
197 196 198 199 199 203 208 212 216 218 221 225 227 231 236 242 245 250 258 271 274 273 263 287 298 303 308 307 300 298 299 286 296 294 287 278 274 254 240 233 230 236 236
201 200 201 202 203 206 210 213 217 219 220 224 230 243 252 256 266 268 264 261 268 265 270 278 283 312 312 310 303 292 298 292 291 289 286 283 267 271 248 247 241 245 244
201 201 204 205 206 207 210 214 218 222 224 231 236 242 247 249 256 263 266 266 260 261 253 275 303 316 316 304 300 292 294 290 296 310 306 303 280 261 262 241 261 249 246
200 203 204 205 207 206 207 213 224 230 233 237 246 242 241 250 253 254 254 253 260 242 253 283 318 323 309 323 317 312 296 288 317 171 71 46 68 32 304 268 251 244 243
203 202 205 205 205 204 206 211 217 225 231 240 250 251 252 250 247 247 255 253 242 241 257 290 312 313 320 337 298 324 234 217 282 131 123 28 24 11 14 24 329 236 227
205 207 207 211 210 210 211 215 225 233 240 245 247 255 257 249 238 233 239 248 216 236 242 296 325 316 306 342 332 285 230 169 199 169 27 44 21 3 13 29 41 47 40
207 209 210 213 213 213 215 217 220 230 241 244 249 259 256 246 247 235 232 227 209 248 291 301 322 326 325 321 346 321 266 11 333 159 211 25 28 30 30 42 50 41 45
211 211 213 214 213 215 214 219 218 223 233 237 247 253 247 239 230 217 210 207 206 252 281 280 312 318 312 325 307 314 345 350 326 204 162 148 87 59 66 73 67 56 51
209 211 212 214 214 214 213 216 216 226 234 236 232 231 223 214 214 211 205 202 212 257 232 247 271 280 290 303 281 305 317 292 310 304 307 82 289 166 135 290 327 339 2
208 211 211 210 210 211 210 214 216 223 224 223 215 216 218 215 217 212 206 195 200 211 226 254 248 240 243 271 281 264 259 286 313 301 289 284 328 280 296 262 279 292 303
Height
817 817 818 820 821 824 827 829 828 829 831 833 835 837 839 839 842 844 844 845 845 845 846 847 847 847 847 847 846 846 845 845 845 845 846 846 846 846 846 846 846 846 848
819 820 822 824 825 827 829 830 830 832 834 836 839 841 842 843 844 846 847 847 846 847 848 848 849 849 848 848 848 847 847 847 847 847 847 846 847 847 848 848 847 847 849
822 824 826 827 829 830 831 833 834 835 837 839 842 843 845 846 847 848 849 848 848 849 850 850 851 851 850 849 849 849 848 848 847 848 847 847 848 849 849 849 850 850 851
823 826 829 830 831 832 833 835 837 839 840 842 844 845 847 848 848 850 851 850 850 851 851 852 852 852 851 851 850 849 849 849 848 849 847 849 848 849 850 851 851 852 853
824 827 830 831 832 833 836 838 839 841 842 844 846 846 848 848 850 851 851 851 852 852 852 853 853 852 852 851 851 850 849 849 849 849 849 850 849 850 851 851 853 853 855
826 828 830 832 833 836 838 840 841 842 844 846 847 848 849 850 851 852 852 852 853 854 854 854 854 853 852 851 850 850 850 849 849 849 850 851 851 851 852 853 854 855 855
826 830 833 835 836 837 839 841 842 844 846 847 849 850 851 852 853 853 853 854 854 854 854 854 854 854 852 851 850 850 849 849 850 849 851 851 852 852 853 853 854 855 856
828 832 835 836 838 840 841 843 845 847 848 849 850 852 853 853 854 854 855 855 855 855 855 855 854 853 852 851 850 849 849 848 849 849 850 852 851 852 854 855 855 856 858
829 833 836 839 841 843 845 846 847 848 849 851 852 853 854 854 854 855 856 856 856 856 856 855 854 853 852 852 851 850 849 849 849 849 849 850 851 852 854 856 856 857 858
830 835 837 840 843 845 846 847 849 850 851 851 853 854 854 855 855 855 856 856 856 856 856 855 854 853 852 852 852 851 850 848 848 847 849 849 850 851 854 855 857 857 859
832 834 837 840 843 845 847 848 849 850 851 852 853 854 855 856 857 857 855 856 855 855 855 854 854 852 852 851 851 850 848 847 847 847 848 849 849 850 852 854 856 857 858
831 835 836 839 842 845 846 849 850 851 852 853 854 855 856 856 856 856 856 855 854 854 855 853 853 852 850 850 849 848 846 848 846 847 847 848 849 849 851 853 854 855 857
830 832 835 838 841 844 845 848 849 850 851 853 854 855 855 856 856 855 855 854 854 853 853 852 851 850 851 850 850 848 848 846 845 846 846 847 847 848 850 851 852 854 855
828 831 834 838 841 843 844 847 848 848 850 851 852 854 854 854 854 854 853 854 854 853 853 853 851 852 851 850 850 850 848 847 844 844 844 846 846 847 848 849 851 852 853
826 830 833 836 840 842 844 845 846 847 849 850 851 852 852 853 853 853 854 854 854 853 851 852 852 851 850 849 849 848 847 847 847 844 843 844 844 845 847 847 849 850 851
823 827 831 834 837 839 841 843 844 846 847 847 848 849 850 851 851 852 853 852 852 852 851 852 852 850 850 847 847 846 847 847 846 846 843 842 843 845 845 846 847 848 849
820 824 828 831 834 837 839 840 842 843 844 845 846 847 848 849 849 850 851 851 851 850 850 851 851 848 847 845 844 844 845 844 844 844 843 842 841 841 843 845 845 846 847
817 821 825 828 830 834 836 838 839 840 842 843 844 845 846 848 848 848 851 850 849 849 848 849 848 847 845 844 843 843 842 842 842 842 841 841 840 840 840 841 843 844 845
814 818 822 825 827 830 833 836 838 839 840 840 841 843 844 844 845 846 847 847 847 847 848 846 846 846 844 843 842 840 840 840 839 838 839 839 839 839 838 838 840 842 843
810 815 819 822 825 828 831 833 835 837 838 839 838 839 840 842 842 843 843 845 845 844 845 846 847 846 844 843 841 840 840 840 839 838 838 838 838 839 838 839 838 837 839
806 811 815 818 822 825 828 829 831 833 835 836 835 836 837 838 839 840 841 842 843 843 844 846 846 844 842 841 840 837 838 841 840 838 837 838 839 839 839 839 837 837 837
800 805 810 814 818 822 824 826 827 828 829 830 832 833 834 835 836 838 839 840 841 841 844 845 845 843 841 842 840 837 831 834 837 839 839 837 838 838 839 840 840 839 838
793 799 804 808 813 817 819 822 825 827 829 829 830 831 832 833 835 836 838 839 841 842 841 844 844 845 841 842 843 840 832 829 833 836 841 841 840 839 839 841 841 841 840
786 792 797 802 807 810 814 816 819 821 822 823 826 827 830 832 833 835 836 838 839 840 841 841 842 843 844 842 842 842 842 842 833 830 836 840 840 839 841 840 841 840 841
778 783 789 795 799 803 808 811 815 818 818 821 823 825 827 828 829 831 834 836 839 840 840 840 841 841 842 841 840 840 841 841 844 838 831 834 838 838 838 839 840 840 840
769 775 781 786 791 796 800 804 808 811 815 816 819 822 823 825 827 829 830 832 835 837 840 841 841 841 840 841 842 842 840 839 838 839 835 834 835 835 837 836 838 839 839